This is the latest recevied weather packets stored in our database for station/object KD8BMB. If no packets are shown the sender has not sent any weather packets the latest 10 day(s).
| Time | Temp. | Humidity | Pressure | Rain* | Wind** | Luminosity | Snow |
|---|---|---|---|---|---|---|---|
| 1777897171 | 12.22° C | 75% | 1004 hPa | 0 mm | - | 168 W/m² | - |
| 1777896867 | 12.22° C | 76% | 1003.5 hPa | 0 mm | - | 155 W/m² | - |
| 1777896565 | 11.67° C | 77% | 1003.5 hPa | 0 mm | - | 150 W/m² | - |
| 1777896262 | 11.67° C | 77% | 1004 hPa | 0 mm | - | 137 W/m² | - |
| 1777895960 | 11.11° C | 78% | 1003.6 hPa | 0 mm | - | 122 W/m² | - |
| 1777895657 | 11.11° C | 79% | 1004 hPa | 0 mm | - | 75 W/m² | - |
| 1777895354 | 11.11° C | 80% | 1003.7 hPa | 0 mm | - | 79 W/m² | - |
| 1777895053 | 10.56° C | 80% | 1003.7 hPa | 0 mm | - | 52 W/m² | - |
| 1777894749 | 10.56° C | 80% | 1003.7 hPa | 0 mm | - | 52 W/m² | - |
| 1777894446 | 10.56° C | 80% | 1003.7 hPa | 0 mm | - | 50 W/m² | - |
| 1777894144 | 10.56° C | 81% | 1003.5 hPa | 0 mm | - | 48 W/m² | - |
| 1777893840 | 10° C | 81% | 1003.7 hPa | 0 mm | - | 42 W/m² | - |
| 1777893536 | 10° C | 82% | 1003.6 hPa | 0 mm | - | 41 W/m² | - |
| 1777893233 | 9.44° C | 84% | 1003.5 hPa | 0 mm | - | 36 W/m² | - |
| 1777892930 | 8.89° C | 85% | 1004 hPa | 0 mm | - | 31 W/m² | - |
| 1777892626 | 8.89° C | 86% | 1003.6 hPa | 0 mm | - | 26 W/m² | - |
| 1777892322 | 8.89° C | 86% | 1003.6 hPa | 0 mm | - | 22 W/m² | - |
| 1777892018 | 8.89° C | 86% | 1003.9 hPa | 0 mm | - | 19 W/m² | - |
| 1777891716 | 8.89° C | 86% | 1003.7 hPa | 0 mm | - | 15 W/m² | - |
| 1777891412 | 8.33° C | 87% | 1003.7 hPa | 0 mm | - | 11 W/m² | - |
| 1777891107 | 8.33° C | 86% | 1003.5 hPa | 0 mm | - | 8 W/m² | - |
| 1777890803 | 8.89° C | 86% | 1004 hPa | 0 mm | - | 4 W/m² | - |
| 1777890499 | 8.89° C | 86% | 1003.9 hPa | 0 mm | - | 2 W/m² | - |
| 1777890195 | 8.33° C | 86% | 1003.9 hPa | 0 mm | - | 1 W/m² | - |
| 1777889891 | 8.33° C | 86% | 1003.9 hPa | 0 mm | - | 0 W/m² | - |
* Rain latest hour (hover to see other rain measurements)
** Current wind speed in m/s (hover to see current wind gust speed)